Location: �quirre
(50.4736°N, 2.2351°E)
Time: 02:49:35
(UTC+00:00)

SL-16 R/B - Pass Details

Date: 07 August 2020
Orbit: 985 x 1007 km, 99.5° (Epoch: 25 September)

Event Time Altitude Azimuth Distance (km) Brightness Sun altitude
Exits shadow 02:13:43 25° 210° (SSW) 1,891 3.4 -16.8°
Maximum altitude 02:16:45 41° 263° (W) 1,427 3.1 -16.5°
Drops below altitude 10° 02:22:39 10° 332° (NNW) 2,791 5.2 -15.9°
Sets 02:25:19 0° 340° (NNW) 3,743 6.0 -15.7°
